SILO ALERT LOG
| Silo ID | Alert Type | Alert Message | Silo Type | Points | Depth (mm) | Strength | Temperature (°C) | Humidity (%) | Height (mm) | Volume (㎥) | Weight (t) | Flag | Time |
|---|---|---|---|---|---|---|---|---|---|---|---|---|---|
| WJWJR01 | Humidity | 습도센서 측정값이 80% 초과 | 평 | 78 | 7690 | 1129 | 23.3 | 91.2 | -50 | -5.655 | 0 | 0 | 2026-07-21 05:26:04.000 |
| WJWJR01 | Humidity | 습도센서 측정값이 80% 초과 | 평 | 76 | 7700 | 1128 | 23.5 | 91 | -60 | -6.786 | 0 | 0 | 2026-07-21 04:26:01.000 |
| WJWJR01 | Humidity | 습도센서 측정값이 80% 초과 | 평 | 77 | 7670 | 1103 | 23.4 | 90.6 | -30 | -3.393 | 0 | 0 | 2026-07-21 03:26:02.000 |
| WJWJR01 | Humidity | 습도센서 측정값이 80% 초과 | 평 | 77 | 7670 | 1075 | 23.6 | 90.1 | -30 | -3.393 | 0 | 0 | 2026-07-21 02:26:01.000 |
| WJWJR01 | Humidity | 습도센서 측정값이 80% 초과 | 평 | 77 | 7680 | 1089 | 23.8 | 89.4 | -40 | -4.524 | 0 | 0 | 2026-07-21 01:26:01.000 |
| WJWJR01 | Humidity | 습도센서 측정값이 80% 초과 | 평 | 83 | 7680 | 1076 | 24 | 88.8 | -40 | -4.524 | 0 | 0 | 2026-07-21 00:26:05.000 |
| WJWJR01 | Humidity | 습도센서 측정값이 80% 초과 | 평 | 75 | 7700 | 1097 | 24.1 | 88.3 | -60 | -6.786 | 0 | 0 | 2026-07-20 23:26:00.000 |
| WJWJR01 | Humidity | 습도센서 측정값이 80% 초과 | 평 | 77 | 7690 | 1089 | 24.3 | 87.4 | -50 | -5.655 | 0 | 0 | 2026-07-20 22:26:02.000 |
| WJWJR01 | Humidity | 습도센서 측정값이 80% 초과 | 평 | 82 | 7700 | 1114 | 24.6 | 86.7 | -60 | -6.786 | 0 | 0 | 2026-07-20 21:26:00.000 |
| WJWJR01 | Humidity | 습도센서 측정값이 80% 초과 | 평 | 76 | 7630 | 1100 | 24.9 | 86.2 | 9 | 1.131 | 0.715 | 0 | 2026-07-20 20:26:02.000 |
| WJWJR01 | Humidity | 습도센서 측정값이 80% 초과 | 평 | 77 | 7660 | 1084 | 25.4 | 86.4 | -20 | -2.262 | 0 | 0 | 2026-07-20 19:26:02.000 |
| WJWJR01 | Humidity | 습도센서 측정값이 80% 초과 | 평 | 77 | 7670 | 1109 | 25.8 | 90.5 | -30 | -3.393 | 0 | 0 | 2026-07-20 18:25:59.000 |
| WJWJR01 | Humidity | 습도센서 측정값이 80% 초과 | 평 | 76 | 7690 | 1069 | 25.7 | 92.7 | -50 | -5.655 | 0 | 0 | 2026-07-20 17:26:01.000 |
| WJWJR01 | Humidity | 습도센서 측정값이 80% 초과 | 평 | 83 | 7710 | 1064 | 24.8 | 90.9 | -70 | -7.917 | 0 | 0 | 2026-07-20 16:26:02.000 |
| WJWJR01 | Humidity | 습도센서 측정값이 80% 초과 | 평 | 76 | 7690 | 1123 | 23.4 | 89 | -50 | -5.655 | 0 | 0 | 2026-07-20 15:26:00.000 |
| WJWJR01 | Humidity | 습도센서 측정값이 80% 초과 | 평 | 83 | 7700 | 1123 | 23.2 | 89 | -60 | -6.786 | 0 | 0 | 2026-07-20 14:26:02.000 |
| WJWJR01 | Humidity | 습도센서 측정값이 80% 초과 | 평 | 75 | 7720 | 1119 | 23.2 | 89.1 | -80 | -9.048 | 0 | 0 | 2026-07-20 13:25:58.000 |
| WJWJR01 | Humidity | 습도센서 측정값이 80% 초과 | 평 | 77 | 7670 | 1101 | 23.1 | 89 | -30 | -3.393 | 0 | 0 | 2026-07-20 12:26:04.000 |
| WJWJR01 | Humidity | 습도센서 측정값이 80% 초과 | 평 | 83 | 7700 | 1086 | 23.1 | 89 | -60 | -6.786 | 0 | 0 | 2026-07-20 11:26:02.000 |
| WJWJR01 | Humidity | 습도센서 측정값이 80% 초과 | 평 | 83 | 7690 | 1093 | 23.2 | 89.1 | -50 | -5.655 | 0 | 0 | 2026-07-20 10:26:01.000 |
[첫 페이지] [25] [26] [27] [28] 29 [30] [31] [32] [33] [마지막 페이지]